Regional Weather Roundup
Issued by NWS

Home | Current Version | Previous Version | Graphics & Text | Print | Product List | Glossary On
Versions: 1 2 3 4 5 6 7 8 9 10 11 12 13 14 15 16 17 18 19 20 21 22 23 24 25 26 27 28 29 30 31 32 33 34 35 36 37 38 39 40 41 42 43 44 45 46 47 48 49 50
000
ASUS43 KIND 202100
RWRIN

WEATHER ROUNDUP FOR INDIANA
NATIONAL WEATHER SERVICE INDIANAPOLIS IN
500 PM EDT SUN MAY 20 2018

NOTE: "FAIR" INDICATES FEW OR NO CLOUDS BELOW 12,000 FEET WITH NO
SIGNIFICANT WEATHER AND/OR OBSTRUCTIONS TO VISIBILITY.

* - STATION DOES NOT REPORT WEATHER SUCH AS PRECIPITATION OR FOG.

+ - STATION NOT QUALITY CONTROLLED BY THE NATIONAL WEATHER SERVICE.
    USE DATA WITH CAUTION...ESPECIALLY DEWPOINT AND RELATIVE
    HUMIDITY OBSERVATIONS.

INZ001>003-010>013-019-020-202200-
NORTHWEST INDIANA

CITY           SKY/WX    TMP DP  RH WIND       PRES   REMARKS
GARY /AIRPORT/ CLOUDY    48  45  87 N12       30.22S
MICHIGAN CITY+ CLOUDY    46  46 100 NW6       30.20S
MONTICELLO +   FAIR      66  57  72 N8        30.13F
VALPARAISO     CLOUDY    64  55  72 N6        30.17F

$$

LMZ046-743>745-202200-
SOUTHERN LAKE MICHIGAN

STATION/POSITION TIME  TEMP    WIND        PRES    WAVE
                       AIR SEA DIR/SP/G            HT
                 (UTC) (F)     (DEG/KT/KT) (MB)    (FT)
BURNS HARBOR     2040   44     350/ 14/ 15 1023.0S
MICHIGAN CITY    2030   45     330/ 18/ 19   N/A
5NW MICH CITY    2050   44 52   10/ 16/ 19   N/A     5

$$

INZ004-005-014>016-021>024-202200-
NORTH CENTRAL INDIANA

CITY           SKY/WX    TMP DP  RH WIND       PRES   REMARKS
GOSHEN         PTSUNNY   67  60  78 E6        30.15S
PERU/GRISSOM   MOSUNNY   73  65  75 NE6       30.12F
SOUTH BEND     CLOUDY    64  58  80 CALM      30.16F
WARSAW +       PTSUNNY   68  61  77 NE6       30.14F

$$

INZ006>009-017-018-025>027-202200-
NORTHEAST INDIANA

CITY           SKY/WX    TMP DP  RH WIND       PRES   REMARKS
ANGOLA *+      CLOUDY    63  59  88 N6        30.14F
FORT WAYNE     PTSUNNY   70  61  73 E8        30.14F
KENDALLVILLE +   N/A     67  58  72 NE3       30.15F

$$

INZ028-029-035-036-043>045-051>053-202200-
WEST CENTRAL INDIANA

CITY           SKY/WX    TMP DP  RH WIND       PRES   REMARKS
GREENCASTLE +  FAIR      81  59  47 W3        30.09F
LAFAYETTE      FAIR      70  62  76 N13       30.11F
TERRE HAUTE    FAIR      84  64  50 N9        30.07F

$$

INZ030>032-037>040-046>048-054>057-064-065-202200-
CENTRAL INDIANA

CITY           SKY/WX    TMP DP  RH WIND       PRES   REMARKS
COLUMBUS       SUNNY     86  57  37 W5        30.06S
INDIANAPOLIS   PTSUNNY   84  62  47 NW15      30.08S
-EAGLE CREEK   FAIR      82  62  50 NW8       30.08F
KOKOMO +       PTSUNNY   73  63  70 NE8       30.13F
MT COMFORT *+  PTSUNNY   82  70  65 N17       30.10R
SHELBYVILLE    FAIR      84  64  50 W5        30.06F

$$

INZ033-034-041-042-049-050-058-059-202200-
EAST CENTRAL INDIANA

CITY           SKY/WX    TMP DP  RH WIND       PRES   REMARKS
MUNCIE         FAIR      79  65  62 N9        30.12S
RICHMOND +     PTSUNNY   79  66  65 CALM      30.09F HAZE

$$

INZ060-061-067>069-081>083-085>088-202200-
SOUTHWEST INDIANA

CITY           SKY/WX    TMP DP  RH WIND       PRES   REMARKS
EVANSVILLE     FAIR      85  68  56 W7        30.06F
HUNTINGBURG +  FAIR      87  66  49 W8        30.05F

$$

INZ062-063-066-070>080-084-089>092-202200-
SOUTH CENTRAL AND SOUTHEAST INDIANA

CITY           SKY/WX    TMP DP  RH WIND       PRES   REMARKS
BLOOMINGTON    FAIR      85  64  49 W9        30.07F
FRENCH LICK *+ FAIR      84  55  37 SW3       30.06F
SEYMOUR +      FAIR      90  63  40 W6        30.04F HX  90

$$




USA.gov is the U.S. government's official web portal to all federal, state and local government web resources and services.